Погода в Николаевской

Россия / Республика Северная Осетия — Алания     43°13′14″N   44°12′33″E
темп.,
°C
ветер,
м/с
пор.,
м/с
влажн.,
%
обл.,
%
осадки,
мм/ч
давл.,
гПа
погр.,
м
23 сентября, чт
чт2300:00+12сз1396100 6.1 1013267
03:00+12сз2496100 7.0 1013345
06:00+11сз3497100 0.4 1013404
09:00+11сз2395100 0.7 1013335
12:00+11ссз2394100 0.2 1012340
15:00+13ссз2290100 0.4 1011372
18:00+10зсз2296100 3.7 1013209
21:00+10с1297100 10.8 1012220
24 сентября, пт
пт2400:00+10зсз1296100 3.6 1012177
03:00+10ююз2496100 12.9 1011262
06:00+10з1296100 10.3 1012124
09:00+10с1196100 14.0 1014107
12:00+11зсз2492100 0.9 1014471
15:00+10зсз2391100 1.7 1016302
18:00+10ююв2291100 0.0 101692
21:00+10всв019088 0.0 101713
25 сентября, сб
сб2500:00+10ююв118767 0.0 101623
03:00+8ю119210 0.0 101510
06:00+9ю228532 0.0 101521
09:00+13юв247098 0.0 1013367
12:00+18в225092 0.0 1010616
15:00+18ссз775299 0.0 10131225
18:00+12сз3669100 0.0 1018555
21:00+12юв2272100 0.0 101974
26 сентября, вс
вс2600:00+12ююв2374100 0.0 102098
03:00+11вюв2481100 0.2 1021229
06:00+11в248499 0.3 1022197
09:00+13в236994 0.3 1023746
12:00+16вюв235450 0.0 10211390
15:00+17всв015150 0.0 10201335
18:00+13юв22653 0.0 102018
21:00+11ююз12730 0.0 102013
27 сентября, пн
пн2700:00+10ююз22700 0.0 101913
03:00+10ююз22640 0.0 101925
06:00+10ююв22630 0.0 101815
09:00+16вюв22525 0.0 1017315
12:00+20ссв434572 0.0 10161826
15:00+17ссв5560100 0.0 1016623
18:00+15ссз1170100 0.1 101711
21:00+14ююв017598 0.1 101711